SCP
0 0 0 0 0 0 0 0 0 0 0 0 0 0 0 0 0 0 0 0 0 0 0 0 0 0 0 0 0 0 0 0 0 0 0 0 0 0 0 0 0 0 0
0 0 0 0 0 0 0 0 0 0 0 0 0 0 0 0 0 0 0 0 0 0 0 0 0 0 0 0 0 0 0 0 0 0 0 0 0 0 0 0 0 0 0
0 0 0 0 0 0 0 0 0 0 0 0 0 0 0 0 0 0 0 0 0 0 0 0 0 0 0 0 0 0 0 0 0 0 0 0 0 0 0 0 0 0 0
0 0 0 0 0 0 0 0 0 0 0 0 0 0 0 0 0 0 0 0 0 0 0 0 0 0 0 0 0 0 0 0 0 0 0 0 0 0 0 0 0 0 0
0 0 0 0 0 0 0 0 0 0 0 0 0 0 0 0 0 0 0 0 0 0 0 0 0 0 0 0 0 0 0 0 0 0 0 0 0 0 0 0 0 0 0
0 0 0 0 0 0 0 0 0 0 0 0 0 0 0 0 0 0 0 0 0 0 0 0 0 0 0 0 0 0 0 0 0 0 0 0 0 0 0 0 0 0 0
0 0 0 0 0 0 0 0 0 0 0 0 0 0 0 0 0 0 0 0 0 0 0 0 0 0 0 0 0 0 0 0 0 0 0 0 0 0 0 0 0 0 0
0 0 0 0 0 0 0 0 0 0 0 0 0 0 0 0 0 0 0 0 0 0 0 0 0 0 0 0 0 0 0 0 0 0 0 0 0 0 0 0 0 0 0
0 0 0 0 0 0 0 0 0 0 0 0 0 0 0 0 0 0 0 0 0 0 0 0 0 0 0 0 0 0 0 0 0 0 0 0 0 0 0 0 0 0 0
0 0 0 0 0 0 0 0 0 0 0 0 0 0 0 0 0 0 0 0 0 0 0 0 0 0 0 0 0 0 0 0 0 0 0 0 0 0 0 0 0 0 0
0 0 0 0 0 0 0 0 0 0 0 0 0 0 0 0 0 0 0 0 0 0 0 0 0 0 0 0 0 0 0 0 0 0 0 0 0 0 0 0 0 0 0
0 0 0 0 0 0 0 0 0 0 0 0 0 0 0 0 0 0 0 0 0 0 0 0 0 0 0 0 0 0 0 0 0 0 0 0 0 0 0 0 0 0 0
0 0 0 0 0 0 0 0 0 0 0 0 0 0 0 0 0 0 0 0 0 0 0 0 0 0 0 0 0 0 0 0 0 0 0 0 0 0 0 0 0 0 0
0 0 0 0 0 0 0 0 0 0 0 0 0 0 0 0 0 0 0 0 0 0 0 0 0 0 0 0 0 0 0 0 0 0 0 0 0 0 0 0 0 0 0
0 0 0 0 0 0 0 0 0 0 0 0 0 0 0 0 0 0 0 0 0 0 0 0 0 0 0 0 0 0 0 0 0 0 0 0 0 0 0 0 0 0 0
0 0 0 0 0 0 0 0 0 0 0 0 0 0 0 0 0 0 0 0 0 0 0 0 0 0 0 0 0 0 0 0 0 0 0 0 0 0 0 0 0 0 0
0 0 0 0 0 0 0 0 0 0 0 0 0 0 0 0 0 0 0 0 0 0 0 0 0 0 0 0 0 0 0 0 0 0 0 0 0 0 0 0 0 0 0
0 0 0 0 0 0 0 0 0 0 0 0 0 0 0 0 0 0 0 0 0 0 0 0 0 0 0 0 0 0 0 0 0 0 0 0 0 0 0 0 0 0 0
0 0 0 0 0 0 0 0 0 0 0 0 0 0 0 0 0 0 0 0 0 0 0 0 0 0 0 0 0 0 0 0 0 0 0 0 0 0 0 0 0 0 0
0 0 0 0 0 0 0 0 0 0 0 0 0 0 0 0 0 0 0 0 0 0 0 0 0 0 0 0 0 0 0 0 0 0 0 0 0 0 0 0 0 0 0
0 0 0 0 0 0 0 0 0 0 0 0 0 0 0 0 0 0 0 0 0 0 0 0 0 0 0 0 0 0 0 0 0 0 0 0 0 0 0 0 0 0 0
0 0 0 0 0 0 0 0 0 0 0 0 0 0 0 0 0 0 0 0 0 0 0 0 0 0 0 0 0 0 0 0 0 0 0 0 0 0 0 0 0 0 0
0 0 0 0 0 0 0 0 0 0 0 0 0 0 0 0 0 0 0 0 0 0 0 0 0 0 0 0 0 0 0 0 0 0 0 0 0 0 0 0 0 0 0
0 0 0 0 0 0 0 0 0 0 0 0 0 0 0 0 0 0 0 0 0 0 0 0 0 0 0 0 0 0 0 0 0 0 0 0 0 0 0 0 0 0 0
0 0 0 0 0 0 0 0 0 0 0 0 0 0 0 0 0 0 0 0 0 0 0 0 0 0 0 0 0 0 0 0 0 0 0 0 0 0 0 0 0 0 0
0 0 0 0 0 0 0 0 0 0 0 0 0 0 0 0 0 0 0 0 0 0 0 0 0 0 0 0 0 0 0 0 0 0 0 0 0 0 0 0 0 0 0
Wind_Speed_500mb
20 19 17 15 14 14 13 14 13 13 13 13 13 13 14 14 17 19 24 27 27 25 21 20 22 18 11 19 20 16 24 23 26 23 25 29 32 35 37 38 38 38 37
20 19 18 16 14 15 16 16 16 16 16 16 16 17 17 17 19 23 28 33 31 25 18 18 21 16 19 19 10 15 23 23 22 23 27 31 34 36 38 40 41 41 41
20 19 18 17 15 18 19 20 19 20 19 21 20 19 20 15 18 23 30 34 29 22 15 16 18 24 11 6 17 23 18 18 20 26 30 33 36 37 40 42 43 45 41
21 21 21 19 19 23 24 25 25 25 24 24 22 17 19 21 23 27 28 32 28 20 14 14 19 12 14 18 19 18 18 18 22 26 30 34 38 41 43 44 45 45 42
24 24 23 21 23 26 27 28 27 27 26 25 23 17 21 28 32 31 30 27 21 17 13 14 13 14 16 15 17 17 17 18 23 29 34 38 42 44 44 45 45 45 45
27 28 27 26 27 29 28 28 28 27 27 24 24 23 29 31 34 28 24 18 17 14 13 13 11 14 15 16 16 17 16 19 24 30 33 37 39 41 43 45 44 44 41
30 30 29 29 29 30 26 26 28 28 28 27 30 34 32 28 26 23 21 18 21 13 13 12 10 14 17 18 18 18 18 20 24 30 34 36 38 41 42 41 41 40 43
34 31 32 29 29 29 29 30 31 33 33 33 35 36 19 14 24 20 16 14 14 13 17 15 16 19 27 22 21 21 20 21 23 29 35 37 39 40 40 39 37 41 38
27 35 33 34 32 33 34 32 36 35 34 33 30 26 9 8 10 15 14 13 16 17 19 20 21 23 24 26 24 24 23 24 26 32 35 37 37 39 37 35 33 35 38
32 31 30 27 26 30 31 30 28 27 23 23 27 24 26 27 16 13 16 16 19 21 23 26 28 28 29 26 27 27 27 28 30 35 37 38 37 36 35 34 35 35 37
44 39 33 30 31 31 32 29 27 28 31 32 28 27 25 28 25 23 14 21 20 19 22 32 29 37 28 33 28 30 29 31 34 40 40 39 38 35 34 35 38 40 38
22 26 30 33 35 30 30 32 34 36 33 34 35 28 21 19 16 17 22 23 24 24 28 34 36 39 31 31 28 31 32 34 39 41 40 39 38 35 35 37 38 37 34
44 42 36 44 39 37 35 35 36 35 32 32 26 23 21 20 21 24 27 31 25 25 25 31 37 36 37 29 30 32 33 36 38 39 40 38 37 39 40 41 44 43 36
27 25 24 28 29 27 22 19 19 19 19 17 14 18 21 24 25 22 18 22 22 23 26 32 28 32 32 30 31 31 33 36 37 37 36 35 36 40 42 43 44 42 34
20 18 17 16 14 10 8 7 8 8 9 7 10 17 19 20 21 18 21 23 25 23 22 27 27 31 27 23 25 30 32 33 34 32 31 34 36 38 41 44 41 40 39
11 11 10 8 5 3 1 2 2 1 6 9 14 18 16 16 17 20 25 26 21 20 20 19 20 22 21 23 27 29 28 29 30 31 32 34 36 37 40 39 41 40 40
11 11 10 8 7 5 3 2 2 6 9 11 13 14 14 16 18 16 14 12 11 11 15 17 19 19 20 23 25 25 25 25 28 32 33 34 36 39 37 36 37 38 39
5 7 8 9 7 6 4 1 3 6 10 10 11 11 11 10 10 10 10 10 8 9 11 14 16 18 19 20 22 20 20 22 24 28 32 31 32 35 36 37 38 38 40
5 5 6 6 5 4 3 2 3 5 6 7 8 8 9 9 10 10 10 10 11 12 13 15 16 17 15 14 14 15 17 20 22 25 27 30 30 31 35 37 37 36 38
6 7 8 7 6 6 6 7 5 3 4 8 9 9 9 10 10 12 13 13 12 12 12 11 12 11 9 8 10 14 15 17 17 19 24 27 28 34 37 35 28 33 40
7 7 8 9 9 9 8 7 6 7 8 10 12 14 14 13 15 17 16 13 12 10 9 7 6 7 6 7 10 12 13 15 15 16 23 25 25 32 32 27 29 34 40
14 14 14 13 11 11 12 13 10 10 10 13 15 15 15 16 13 14 14 13 10 7 6 4 4 3 6 9 8 8 10 11 12 16 23 21 25 31 29 21 25 33 38
19 19 19 18 14 14 11 12 12 9 11 18 19 16 16 15 14 12 12 12 8 2 2 1 2 4 4 4 5 6 9 13 15 19 22 19 24 30 21 12 26 36 38
22 23 22 21 20 16 14 10 10 17 16 17 17 19 17 15 14 11 9 6 3 0 1 4 3 1 1 1 3 7 10 13 18 21 18 20 24 27 16 9 31 34 37
22 22 23 22 22 20 17 15 14 16 17 18 18 17 17 14 13 13 8 4 4 4 4 4 2 1 0 2 5 9 13 16 18 18 19 25 28 27 13 10 34 29 39
20 21 21 22 21 17 14 18 21 21 20 19 17 17 17 14 12 9 8 7 6 8 6 3 3 3 1 3 8 10 14 17 18 13 23 25 27 33 13 7 31 19 39
Wind_Direction_500mb
217 224 222 235 239 249 257 255 254 260 267 273 283 295 306 301 309 323 329 328 319 313 316 318 325 316 316 330 333 323 321 339 347 349 349 351 352 350 349 345 343 339 341
223 227 228 237 244 255 261 262 265 268 270 274 275 287 298 305 313 324 326 328 320 309 306 323 316 321 323 323 314 316 323 337 343 351 358 1 358 355 352 348 345 343 342
227 232 238 246 255 264 268 270 270 272 274 275 279 285 292 306 332 325 330 328 323 307 285 281 300 296 296 267 300 310 325 338 351 360 4 2 358 355 351 349 348 345 345
230 238 245 252 259 264 269 271 274 277 279 282 285 288 303 325 324 321 320 326 319 308 277 267 275 265 283 295 305 316 332 347 358 2 1 359 356 354 350 349 347 345 345
238 247 253 258 262 267 270 272 273 277 278 282 286 297 299 292 297 306 312 321 314 297 272 273 257 282 292 293 307 324 337 347 354 359 359 355 351 348 346 343 345 343 344
247 255 258 263 267 270 271 276 280 281 283 288 285 288 284 290 298 301 305 311 320 288 264 252 257 285 293 299 308 320 331 344 352 354 351 348 344 342 340 341 341 342 348
255 258 262 268 266 269 275 279 281 285 289 292 287 283 288 295 296 293 282 296 301 269 236 230 276 299 301 299 307 317 326 337 344 345 343 342 341 337 337 338 339 339 344
258 263 263 264 265 269 270 274 274 279 278 278 278 285 289 284 280 255 252 301 284 253 252 241 261 289 297 294 300 305 312 324 334 337 338 338 337 335 336 337 337 337 345
252 260 259 261 262 266 269 268 270 271 277 280 280 279 266 254 234 228 246 263 241 248 251 248 256 274 284 286 293 298 301 312 326 334 336 333 334 333 333 335 340 344 345
248 254 265 269 270 271 272 272 274 276 271 281 282 280 274 265 255 220 241 239 245 246 250 254 256 261 268 274 288 291 298 310 323 331 332 333 333 332 331 330 334 345 348
252 253 259 271 279 282 274 276 275 282 286 280 280 284 274 258 250 243 249 251 252 257 280 267 265 264 262 275 284 291 300 309 322 328 332 333 331 331 328 326 329 334 342
276 280 282 288 280 273 271 274 277 278 272 280 280 277 264 250 244 254 256 253 252 261 266 264 261 261 261 271 287 296 306 316 322 329 330 330 330 327 324 326 329 332 344
271 271 266 271 278 277 275 274 273 269 271 275 272 271 265 258 256 263 261 250 255 266 263 255 256 260 267 278 296 301 306 312 322 326 329 330 328 327 326 326 323 329 345
276 274 273 273 271 274 274 275 273 270 269 264 261 263 270 270 272 266 250 255 259 269 262 250 264 265 273 287 288 298 310 322 325 328 331 330 328 324 324 324 327 337 347
268 260 258 256 258 262 271 275 269 259 260 264 257 256 263 265 270 264 264 269 275 269 263 256 256 268 273 282 297 310 318 322 325 328 332 329 326 328 325 332 336 339 343
239 235 234 230 227 234 265 316 298 285 216 233 245 260 266 265 264 268 271 274 269 255 247 253 259 269 275 287 302 313 318 321 324 328 328 329 328 328 331 341 343 345 345
208 198 197 183 185 179 187 195 248 265 263 265 268 272 273 271 270 269 273 274 268 258 252 258 259 262 275 292 304 311 318 325 325 328 330 331 333 337 343 342 343 344 345
246 210 194 186 179 169 170 181 287 285 284 288 285 283 278 275 276 283 281 281 279 272 262 261 265 267 282 294 300 311 321 326 324 325 329 332 333 335 344 342 343 347 348
239 228 221 204 187 180 174 190 241 251 269 278 280 284 287 286 284 285 285 284 284 283 276 269 265 267 272 286 302 315 320 323 324 328 330 332 334 340 344 343 345 350 351
273 250 243 240 233 225 220 215 216 248 293 295 287 286 286 285 290 290 288 288 286 284 277 270 265 264 269 284 296 313 325 330 324 320 330 333 338 344 342 337 345 351 351
253 258 271 271 269 271 268 268 275 274 277 287 285 284 284 286 292 291 291 293 299 286 267 253 242 246 278 310 314 325 338 332 316 307 336 339 334 336 338 339 344 348 348
261 242 231 229 235 235 229 232 236 258 276 276 280 280 280 280 284 292 296 294 286 277 245 215 210 248 307 322 327 339 333 320 327 328 339 337 335 336 335 330 347 347 349
272 269 265 257 245 237 232 243 251 263 284 282 279 283 289 290 293 290 300 309 304 287 243 282 328 316 311 328 332 329 345 345 336 331 337 346 345 341 335 335 355 350 350
274 273 271 271 266 263 256 244 281 288 289 285 286 282 283 286 293 300 302 304 287 71 109 336 324 287 294 323 339 355 348 338 337 338 345 353 353 348 336 309 351 348 348
271 267 262 257 246 231 240 272 276 279 277 279 280 283 292 293 290 295 287 299 283 289 311 305 273 251 160 355 2 357 348 341 344 345 352 355 357 359 338 330 340 340 347
270 263 257 249 240 245 256 277 283 282 282 281 283 285 279 279 282 288 272 250 260 281 285 251 203 174 158 17 5 355 346 349 359 357 350 358 0 6 354 335 340 339 344
Wind_Speed_850mb
20 19 17 15 14 14 13 14 13 13 13 13 13 13 14 14 17 19 24 27 27 25 21 20 22 18 11 19 20 16 24 23 26 23 25 29 32 35 37 38 38 38 37
20 19 18 16 14 15 16 16 16 16 16 16 16 17 17 17 19 23 28 33 31 25 18 18 21 16 19 19 10 15 23 23 22 23 27 31 34 36 38 40 41 41 41
20 19 18 17 15 18 19 20 19 20 19 21 20 19 20 15 18 23 30 34 29 22 15 16 18 24 11 6 17 23 18 18 20 26 30 33 36 37 40 42 43 45 41
21 21 21 19 19 23 24 25 25 25 24 24 22 17 19 21 23 27 28 32 28 20 14 14 19 12 14 18 19 18 18 18 22 26 30 34 38 41 43 44 45 45 42
24 24 23 21 23 26 27 28 27 27 26 25 23 17 21 28 32 31 30 27 21 17 13 14 13 14 16 15 17 17 17 18 23 29 34 38 42 44 44 45 45 45 45
27 28 27 26 27 29 28 28 28 27 27 24 24 23 29 31 34 28 24 18 17 14 13 13 11 14 15 16 16 17 16 19 24 30 33 37 39 41 43 45 44 44 41
30 30 29 29 29 30 26 26 28 28 28 27 30 34 32 28 26 23 21 18 21 13 13 12 10 14 17 18 18 18 18 20 24 30 34 36 38 41 42 41 41 40 43
34 31 32 29 29 29 29 30 31 33 33 33 35 36 19 14 24 20 16 14 14 13 17 15 16 19 27 22 21 21 20 21 23 29 35 37 39 40 40 39 37 41 38
27 35 33 34 32 33 34 32 36 35 34 33 30 26 9 8 10 15 14 13 16 17 19 20 21 23 24 26 24 24 23 24 26 32 35 37 37 39 37 35 33 35 38
32 31 30 27 26 30 31 30 28 27 23 23 27 24 26 27 16 13 16 16 19 21 23 26 28 28 29 26 27 27 27 28 30 35 37 38 37 36 35 34 35 35 37
44 39 33 30 31 31 32 29 27 28 31 32 28 27 25 28 25 23 14 21 20 19 22 32 29 37 28 33 28 30 29 31 34 40 40 39 38 35 34 35 38 40 38
22 26 30 33 35 30 30 32 34 36 33 34 35 28 21 19 16 17 22 23 24 24 28 34 36 39 31 31 28 31 32 34 39 41 40 39 38 35 35 37 38 37 34
44 42 36 44 39 37 35 35 36 35 32 32 26 23 21 20 21 24 27 31 25 25 25 31 37 36 37 29 30 32 33 36 38 39 40 38 37 39 40 41 44 43 36
27 25 24 28 29 27 22 19 19 19 19 17 14 18 21 24 25 22 18 22 22 23 26 32 28 32 32 30 31 31 33 36 37 37 36 35 36 40 42 43 44 42 34
20 18 17 16 14 10 8 7 8 8 9 7 10 17 19 20 21 18 21 23 25 23 22 27 27 31 27 23 25 30 32 33 34 32 31 34 36 38 41 44 41 40 39
11 11 10 8 5 3 1 2 2 1 6 9 14 18 16 16 17 20 25 26 21 20 20 19 20 22 21 23 27 29 28 29 30 31 32 34 36 37 40 39 41 40 40
11 11 10 8 7 5 3 2 2 6 9 11 13 14 14 16 18 16 14 12 11 11 15 17 19 19 20 23 25 25 25 25 28 32 33 34 36 39 37 36 37 38 39
5 7 8 9 7 6 4 1 3 6 10 10 11 11 11 10 10 10 10 10 8 9 11 14 16 18 19 20 22 20 20 22 24 28 32 31 32 35 36 37 38 38 40
5 5 6 6 5 4 3 2 3 5 6 7 8 8 9 9 10 10 10 10 11 12 13 15 16 17 15 14 14 15 17 20 22 25 27 30 30 31 35 37 37 36 38
6 7 8 7 6 6 6 7 5 3 4 8 9 9 9 10 10 12 13 13 12 12 12 11 12 11 9 8 10 14 15 17 17 19 24 27 28 34 37 35 28 33 40
7 7 8 9 9 9 8 7 6 7 8 10 12 14 14 13 15 17 16 13 12 10 9 7 6 7 6 7 10 12 13 15 15 16 23 25 25 32 32 27 29 34 40
14 14 14 13 11 11 12 13 10 10 10 13 15 15 15 16 13 14 14 13 10 7 6 4 4 3 6 9 8 8 10 11 12 16 23 21 25 31 29 21 25 33 38
19 19 19 18 14 14 11 12 12 9 11 18 19 16 16 15 14 12 12 12 8 2 2 1 2 4 4 4 5 6 9 13 15 19 22 19 24 30 21 12 26 36 38
22 23 22 21 20 16 14 10 10 17 16 17 17 19 17 15 14 11 9 6 3 0 1 4 3 1 1 1 3 7 10 13 18 21 18 20 24 27 16 9 31 34 37
22 22 23 22 22 20 17 15 14 16 17 18 18 17 17 14 13 13 8 4 4 4 4 4 2 1 0 2 5 9 13 16 18 18 19 25 28 27 13 10 34 29 39
20 21 21 22 21 17 14 18 21 21 20 19 17 17 17 14 12 9 8 7 6 8 6 3 3 3 1 3 8 10 14 17 18 13 23 25 27 33 13 7 31 19 39
Wind_Direction_850mb
217 224 222 235 239 249 257 255 254 260 267 273 283 295 306 301 309 323 329 328 319 313 316 318 325 316 316 330 333 323 321 339 347 349 349 351 352 350 349 345 343 339 341
223 227 228 237 244 255 261 262 265 268 270 274 275 287 298 305 313 324 326 328 320 309 306 323 316 321 323 323 314 316 323 337 343 351 358 1 358 355 352 348 345 343 342
227 232 238 246 255 264 268 270 270 272 274 275 279 285 292 306 332 325 330 328 323 307 285 281 300 296 296 267 300 310 325 338 351 360 4 2 358 355 351 349 348 345 345
230 238 245 252 259 264 269 271 274 277 279 282 285 288 303 325 324 321 320 326 319 308 277 267 275 265 283 295 305 316 332 347 358 2 1 359 356 354 350 349 347 345 345
238 247 253 258 262 267 270 272 273 277 278 282 286 297 299 292 297 306 312 321 314 297 272 273 257 282 292 293 307 324 337 347 354 359 359 355 351 348 346 343 345 343 344
247 255 258 263 267 270 271 276 280 281 283 288 285 288 284 290 298 301 305 311 320 288 264 252 257 285 293 299 308 320 331 344 352 354 351 348 344 342 340 341 341 342 348
255 258 262 268 266 269 275 279 281 285 289 292 287 283 288 295 296 293 282 296 301 269 236 230 276 299 301 299 307 317 326 337 344 345 343 342 341 337 337 338 339 339 344
258 263 263 264 265 269 270 274 274 279 278 278 278 285 289 284 280 255 252 301 284 253 252 241 261 289 297 294 300 305 312 324 334 337 338 338 337 335 336 337 337 337 345
252 260 259 261 262 266 269 268 270 271 277 280 280 279 266 254 234 228 246 263 241 248 251 248 256 274 284 286 293 298 301 312 326 334 336 333 334 333 333 335 340 344 345
248 254 265 269 270 271 272 272 274 276 271 281 282 280 274 265 255 220 241 239 245 246 250 254 256 261 268 274 288 291 298 310 323 331 332 333 333 332 331 330 334 345 348
252 253 259 271 279 282 274 276 275 282 286 280 280 284 274 258 250 243 249 251 252 257 280 267 265 264 262 275 284 291 300 309 322 328 332 333 331 331 328 326 329 334 342
276 280 282 288 280 273 271 274 277 278 272 280 280 277 264 250 244 254 256 253 252 261 266 264 261 261 261 271 287 296 306 316 322 329 330 330 330 327 324 326 329 332 344
271 271 266 271 278 277 275 274 273 269 271 275 272 271 265 258 256 263 261 250 255 266 263 255 256 260 267 278 296 301 306 312 322 326 329 330 328 327 326 326 323 329 345
276 274 273 273 271 274 274 275 273 270 269 264 261 263 270 270 272 266 250 255 259 269 262 250 264 265 273 287 288 298 310 322 325 328 331 330 328 324 324 324 327 337 347
268 260 258 256 258 262 271 275 269 259 260 264 257 256 263 265 270 264 264 269 275 269 263 256 256 268 273 282 297 310 318 322 325 328 332 329 326 328 325 332 336 339 343
239 235 234 230 227 234 265 316 298 285 216 233 245 260 266 265 264 268 271 274 269 255 247 253 259 269 275 287 302 313 318 321 324 328 328 329 328 328 331 341 343 345 345
208 198 197 183 185 179 187 195 248 265 263 265 268 272 273 271 270 269 273 274 268 258 252 258 259 262 275 292 304 311 318 325 325 328 330 331 333 337 343 342 343 344 345
246 210 194 186 179 169 170 181 287 285 284 288 285 283 278 275 276 283 281 281 279 272 262 261 265 267 282 294 300 311 321 326 324 325 329 332 333 335 344 342 343 347 348
239 228 221 204 187 180 174 190 241 251 269 278 280 284 287 286 284 285 285 284 284 283 276 269 265 267 272 286 302 315 320 323 324 328 330 332 334 340 344 343 345 350 351
273 250 243 240 233 225 220 215 216 248 293 295 287 286 286 285 290 290 288 288 286 284 277 270 265 264 269 284 296 313 325 330 324 320 330 333 338 344 342 337 345 351 351
253 258 271 271 269 271 268 268 275 274 277 287 285 284 284 286 292 291 291 293 299 286 267 253 242 246 278 310 314 325 338 332 316 307 336 339 334 336 338 339 344 348 348
261 242 231 229 235 235 229 232 236 258 276 276 280 280 280 280 284 292 296 294 286 277 245 215 210 248 307 322 327 339 333 320 327 328 339 337 335 336 335 330 347 347 349
272 269 265 257 245 237 232 243 251 263 284 282 279 283 289 290 293 290 300 309 304 287 243 282 328 316 311 328 332 329 345 345 336 331 337 346 345 341 335 335 355 350 350
274 273 271 271 266 263 256 244 281 288 289 285 286 282 283 286 293 300 302 304 287 71 109 336 324 287 294 323 339 355 348 338 337 338 345 353 353 348 336 309 351 348 348
271 267 262 257 246 231 240 272 276 279 277 279 280 283 292 293 290 295 287 299 283 289 311 305 273 251 160 355 2 357 348 341 344 345 352 355 357 359 338 330 340 340 347
270 263 257 249 240 245 256 277 283 282 282 281 283 285 279 279 282 288 272 250 260 281 285 251 203 174 158 17 5 355 346 349 359 357 350 358 0 6 354 335 340 339 344